Weather in Navlya

Russia / Bryansk Oblast     52°49′48″N   34°30′23″E
temp.,
°C
wind,
m/s
gust,
m/s
humid.,
%
clouds,
%
prec.,
mm/h
press.,
hPa
HPBL,
m
11 may, tue
tue1100:00+7nne413747 0.0 1024347
03:00+6nne412795 0.0 1024300
06:00+6nne412815 0.0 1024309
09:00+12nne610655 0.0 1023484
12:00+18ne610576 0.0 1021948
15:00+19ene7106032 0.0 10211433
18:00+14ese498495 0.5 1022501
21:00+10e3108898 0.5 1023450
12 may, wed
wed1200:00+7e310930 0.0 1023286
03:00+6e412910 0.0 1024499
06:00+6e4118972 0.0 1024342
09:00+12e59655 0.0 1024695
12:00+15e5656100 0.1 10211638
15:00+15ene4654100 0.3 10191612
18:00+12ene598198 0.6 1017760
21:00+9ese239589 1.6 1017109
13 may, thu
thu1300:00+8e4129756 1.8 1015474
03:00+8ese5129338 2.4 1014637
06:00+7se4119656 0.0 1015520
09:00+11sse598174 0.1 1015981
12:00+15s585467 0.1 10141888
15:00+17sse464623 0.1 10141994
18:00+15sse35595 0.0 10141214
21:00+10sse238195 0.0 101545
14 may, fri
fri1400:00+9ese3584100 0.0 101573
03:00+10ese3981100 0.0 1014206
06:00+11ese3109090 0.2 1014243
09:00+16ese51184100 0.8 1012571
12:00+21se696626 0.1 10111313
15:00+21sse597894 4.3 10101150
18:00+19sse498283 1.4 1008540
21:00+15sse3129345 3.9 1008261
15 may, sat
sat1500:00+14sse259710 0.1 100896
03:00+13sse23978 0.4 100864
06:00+12s38966 0.0 1008209
09:00+16sw478321 0.0 1008627
12:00+19sw466074 0.0 10101507
15:00+18sw457039 1.3 10101037
18:00+17ssw368061 1.6 1010468
21:00+13s23905 1.8 101140